,,Stat5,,Stat1,,Stat2,,Stat3,,Stat4,,Wind1,,Wind1,
time,status,PA1M_AVG,status,PR1M_SUM,status,RH1M_AVG,status,SR1M_AVG,status,TA1M_AVG,status,W1dAve1m,status,W1sAve1m,
2002-10-08, 00:00:01,VALID,918.889,VALID,0,VALID,99.6188,VALID,-0.0339617,VALID,19.7827,VALID,145,VALID,0.740543,
2002-10-08, 00:01:01,VALID,918.862,VALID,0,VALID,99.6251,VALID,0,VALID,19.7927,VALID,152,VALID,1.1616,
2002-10-08, 00:02:01,VALID,918.835,VALID,0,VALID,99.6239,VALID,-0.0169808,VALID,19.7934,VALID,162,VALID,0.951758,
2002-10-08, 00:03:01,VALID,918.824,VALID,0,VALID,99.6289,VALID,0,VALID,19.78,VALID,141,VALID,0.83355,
2002-10-08, 00:04:01,VALID,918.793,VALID,0,VALID,99.6239,VALID,0,VALID,19.8031,VALID,178,VALID,0.609605,
2002-10-08, 00:05:01,VALID,918.79,VALID,0,VALID,99.6302,VALID,-0.0169808,VALID,19.7961,VALID,164,VALID,0.804888,
2002-10-08, 00:06:01,VALID,918.756,VALID,0,VALID,99.6226,VALID,-0.0169808,VALID,19.7996,VALID,157,VALID,0.882011,
2002-10-08, 00:07:01,VALID,918.748,VALID,0,VALID,99.6277,VALID,0,VALID,19.7996,VALID,170,VALID,1.11429,
2002-10-08, 00:08:01,VALID,918.753,VALID,0,VALID,99.6315,VALID,-0.0169808,VALID,19.7832,VALID,163,VALID,0.983984,
2002-10-08, 00:09:01,VALID,918.738,VALID,0,VALID,99.615,VALID,-0.0169808,VALID,19.7899,VALID,166,VALID,0.659939,
2002-10-08, 00:10:01,VALID,918.723,VALID,0,VALID,99.62,VALID,-0.0339617,VALID,19.7964,VALID,144,VALID,1.24674,
2002-10-08, 00:11:01,VALID,918.725,VALID,0,VALID,99.6302,VALID,-0.0169808,VALID,19.7929,VALID,144,VALID,0.912162,
2002-10-08, 00:12:01,VALID,918.721,VALID,0,VALID,99.6353,VALID,-0.0339617,VALID,19.7964,VALID,135,VALID,0.950863,
2002-10-08, 00:13:01,VALID,918.694,VALID,0,VALID,99.6302,VALID,-0.0339617,VALID,19.7959,VALID,135,VALID,1.45421,
2002-10-08, 00:14:01,VALID,918.692,VALID,0,VALID,99.6353,VALID,-0.0679233,VALID,19.7996,VALID,147,VALID,0.833826,
2002-10-08, 00:15:01,VALID,918.665,VALID,0,VALID,99.6264,VALID,-0.0169808,VALID,19.8128,VALID,149,VALID,0.759983,
2002-10-08, 00:16:01,VALID,918.649,VALID,0,VALID,99.634,VALID,-0.0169808,VALID,19.816,VALID,124,VALID,0.546258,
2002-10-08, 00:17:00,VALID,918.635,VALID,0,VALID,99.6226,VALID,-0.0339617,VALID,19.8222,VALID,147,VALID,1.11909,
2002-10-08, 00:18:00,VALID,918.616,VALID,0,VALID,99.6226,VALID,0.0169808,VALID,19.8322,VALID,146,VALID,0.859947,
2002-10-08, 00:19:00,VALID,918.618,VALID,0,VALID,99.62,VALID,0,VALID,19.8317,VALID,159,VALID,1.56328,
2002-10-08, 00:20:00,VALID,918.605,VALID,0,VALID,99.6239,VALID,0,VALID,19.8252,VALID,155,VALID,0.885896,
2002-10-08, 00:21:00,VALID,918.59,VALID,0,VALID,99.6213,VALID,-0.0169808,VALID,19.8384,VALID,153,VALID,0.515203,
2002-10-08, 00:22:00,VALID,918.595,VALID,0,VALID,99.6277,VALID,-0.0169808,VALID,19.8481,VALID,152,VALID,1.10977,
2002-10-08, 00:23:00,VALID,918.576,VALID,0,VALID,99.6213,VALID,-0.0169808,VALID,19.8384,VALID,145,VALID,0.9081,
2002-10-08, 00:24:00,VALID,918.573,VALID,0,VALID,99.6264,VALID,-0.0169808,VALID,19.8516,VALID,152,VALID,1.44978,
2002-10-08, 00:25:00,VALID,918.561,VALID,0,VALID,99.6277,VALID,-0.0339617,VALID,19.8453,VALID,164,VALID,1.35076,
2002-10-08, 00:26:00,VALID,918.559,VALID,0,VALID,99.6239,VALID,-0.0509425,VALID,19.8386,VALID,154,VALID,1.57096,
2002-10-08, 00:27:00,VALID,918.56,VALID,0,VALID,99.6289,VALID,-0.0509425,VALID,19.8287,VALID,146,VALID,1.07095,
2002-10-08, 00:28:00,VALID,918.549,VALID,0,VALID,99.6188,VALID,-0.0509425,VALID,19.8347,VALID,134,VALID,0.919764,
2002-10-08, 00:29:00,VALID,918.559,VALID,0,VALID,99.6162,VALID,-0.0339617,VALID,19.8414,VALID,143,VALID,0.949219,
2002-10-08, 00:30:00,VALID,918.566,VALID,0,VALID,99.6226,VALID,-0.0169808,VALID,19.8381,VALID,161,VALID,0.757401,
2002-10-08, 00:31:00,VALID,918.571,VALID,0,VALID,99.6251,VALID,-0.0509425,VALID,19.8282,VALID,164,VALID,0.649916,
2002-10-08, 00:32:00,VALID,918.583,VALID,0,VALID,99.6277,VALID,-0.0169808,VALID,19.8319,VALID,137,VALID,0.529297,
2002-10-08, 00:33:00,VALID,918.57,VALID,0,VALID,99.6264,VALID,0.0679233,VALID,19.8441,VALID,137,VALID,0.657306,
2002-10-08, 00:34:00,VALID,918.57,VALID,0,VALID,99.6264,VALID,0.0849042,VALID,19.8302,VALID,90,VALID,0.407484,
2002-10-08, 00:35:00,VALID,918.563,VALID,0,VALID,99.62,VALID,0.0849042,VALID,19.8334,VALID,143,VALID,0.68149,
2002-10-08, 00:36:00,VALID,918.555,VALID,0,VALID,99.6226,VALID,0.101885,VALID,19.8232,VALID,119,VALID,0.307492,
2002-10-08, 00:37:00,VALID,918.541,VALID,0,VALID,99.62,VALID,0.101885,VALID,19.8329,VALID,124,VALID,0.550042,
2002-10-08, 00:38:00,VALID,918.522,VALID,0,VALID,99.6264,VALID,0.0849042,VALID,19.8267,VALID,157,VALID,0.0970395,
2002-10-08, 00:39:00,VALID,918.507,VALID,0,VALID,99.6226,VALID,0.0679233,VALID,19.8332,VALID,183,VALID,0,
2002-10-08, 00:40:00,VALID,918.486,VALID,0,VALID,99.6124,VALID,0.0849042,VALID,19.8461,VALID,188,VALID,0.0584936,
2002-10-08, 00:41:00,VALID,918.485,VALID,0,VALID,99.615,VALID,0.101885,VALID,19.8587,VALID,188,VALID,0.302849,
2002-10-08, 00:42:00,VALID,918.482,VALID,0,VALID,99.6264,VALID,0.118866,VALID,19.8426,VALID,175,VALID,0.103824,
2002-10-08, 00:43:00,VALID,918.489,VALID,0,VALID,99.6175,VALID,0.101885,VALID,19.8622,VALID,126,VALID,0.305532,
2002-10-08, 00:44:00,VALID,918.489,VALID,0,VALID,99.6239,VALID,0.0849042,VALID,19.8625,VALID,118,VALID,0.155599,
2002-10-08, 00:45:00,VALID,918.474,VALID,0,VALID,99.6213,VALID,0.101885,VALID,19.8463,VALID,118,VALID,0.231337,
2002-10-08, 00:46:00,VALID,918.489,VALID,0,VALID,99.6239,VALID,0.101885,VALID,19.8399,VALID,118,VALID,0.0830592,
2002-10-08, 00:47:00,VALID,918.483,VALID,0,VALID,99.6162,VALID,0.0849042,VALID,19.8396,VALID,118,VALID,0.0707237,
2002-10-08, 00:48:00,VALID,918.472,VALID,0,VALID,99.6175,VALID,0.0169808,VALID,19.8349,VALID,107,VALID,0.159071,
2002-10-08, 00:49:00,VALID,918.467,VALID,0,VALID,99.6188,VALID,0,VALID,19.8349,VALID,88,VALID,0.376339,
2002-10-08, 00:50:00,VALID,918.445,VALID,0,VALID,99.615,VALID,-0.0169808,VALID,19.8217,VALID,121,VALID,0.530633,
2002-10-08, 00:51:00,VALID,918.435,VALID,0,VALID,99.6099,VALID,-0.0509425,VALID,19.8389,VALID,121,VALID,0.0352564,
2002-10-08, 00:52:00,VALID,918.407,VALID,0,VALID,99.6188,VALID,-0.0169808,VALID,19.8255,VALID,121,VALID,0.00351562,
2002-10-08, 00:53:00,VALID,918.401,VALID,0,VALID,99.6188,VALID,-0.0169808,VALID,19.8384,VALID,122,VALID,0.168791,
2002-10-08, 00:54:00,VALID,918.397,VALID,0,VALID,99.6137,VALID,-0.0509425,VALID,19.8379,VALID,123,VALID,0.0316612,
2002-10-08, 00:55:00,VALID,918.384,VALID,0,VALID,99.6188,VALID,0,VALID,19.8543,VALID,123,VALID,0,
2002-10-08, 00:56:00,VALID,918.365,VALID,0,VALID,99.6048,VALID,-0.0169808,VALID,19.8675,VALID,123,VALID,0.0010016,
2002-10-08, 00:57:00,VALID,918.371,VALID,0,VALID,99.6048,VALID,-0.0169808,VALID,19.8702,VALID,123,VALID,0.000200321,
2002-10-08, 00:58:00,VALID,918.357,VALID,0,VALID,99.6073,VALID,0,VALID,19.8642,VALID,123,VALID,0,
2002-10-08, 00:59:00,VALID,918.357,VALID,0,VALID,99.6086,VALID,-0.0169808,VALID,19.8573,VALID,123,VALID,0,
2002-10-08, 01:00:00,VALID,918.331,VALID,0,VALID,99.6048,VALID,0,VALID,19.861,VALID,123,VALID,0,
2002-10-08, 01:01:00,VALID,918.312,VALID,0,VALID,99.601,VALID,0,VALID,19.864,VALID,123,VALID,0,
2002-10-08, 01:02:00,VALID,918.285,VALID,0,VALID,99.6035,VALID,0,VALID,19.8806,VALID,123,VALID,0,
2002-10-08, 01:03:00,VALID,918.263,VALID,0,VALID,99.615,VALID,-0.0339617,VALID,19.8607,VALID,123,VALID,0.0337171,
2002-10-08, 01:04:00,VALID,918.235,VALID,0,VALID,99.601,VALID,-0.0509425,VALID,19.861,VALID,123,VALID,0.0868056,
2002-10-08, 01:05:00,VALID,918.227,VALID,0,VALID,99.6162,VALID,-0.0169808,VALID,19.8543,VALID,123,VALID,0.108742,
2002-10-08, 01:06:00,VALID,918.201,VALID,0,VALID,99.6035,VALID,0,VALID,19.8312,VALID,176,VALID,0.127604,
2002-10-08, 01:07:00,VALID,918.181,VALID,0,VALID,99.5972,VALID,0,VALID,19.8215,VALID,285,VALID,0.0668174,
2002-10-08, 01:08:00,VALID,918.157,VALID,0,VALID,99.5946,VALID,0,VALID,19.8088,VALID,352,VALID,0.576858,
2002-10-08, 01:09:00,VALID,918.136,VALID,0,VALID,99.6111,VALID,-0.0169808,VALID,19.7864,VALID,10,VALID,1.07927,
2002-10-08, 01:10:00,VALID,918.121,VALID,0,VALID,99.6124,VALID,0,VALID,19.78,VALID,20,VALID,1.20313,
2002-10-08, 01:11:00,VALID,918.1,VALID,0,VALID,99.6035,VALID,-0.0169808,VALID,19.7541,VALID,17,VALID,1.29091,
2002-10-08, 01:12:00,VALID,918.083,VALID,0,VALID,99.6137,VALID,0,VALID,19.7579,VALID,23,VALID,1.14907,
2002-10-08, 01:13:00,VALID,918.071,VALID,0,VALID,99.6086,VALID,-0.0509425,VALID,19.7281,VALID,18,VALID,1.18008,
2002-10-08, 01:14:00,VALID,918.042,VALID,0,VALID,99.6111,VALID,0,VALID,19.7385,VALID,25,VALID,1.09951,
2002-10-08, 01:15:00,VALID,918.034,VALID,0,VALID,99.6124,VALID,-0.0169808,VALID,19.7184,VALID,8,VALID,1.12321,
2002-10-08, 01:16:00,VALID,918.022,VALID,0,VALID,99.6048,VALID,-0.0169808,VALID,19.7154,VALID,20,VALID,1.18269,
2002-10-08, 01:17:00,VALID,918.011,VALID,0,VALID,99.6086,VALID,0,VALID,19.7057,VALID,26,VALID,1.26671,
2002-10-08, 01:18:00,VALID,918.001,VALID,0,VALID,99.6162,VALID,0,VALID,19.6861,VALID,28,VALID,1.21748,
2002-10-08, 01:19:00,VALID,917.977,VALID,0,VALID,99.6226,VALID,0,VALID,19.6856,VALID,18,VALID,1.05108,
2002-10-08, 01:20:00,VALID,917.972,VALID,0,VALID,99.62,VALID,-0.0339617,VALID,19.7092,VALID,14,VALID,1.18832,
2002-10-08, 01:21:00,VALID,917.949,VALID,0,VALID,99.6137,VALID,0,VALID,19.6987,VALID,11,VALID,0.971217,
2002-10-08, 01:22:00,VALID,917.936,VALID,0,VALID,99.6124,VALID,-0.0169808,VALID,19.7121,VALID,16,VALID,0.688133,
2002-10-08, 01:23:00,VALID,917.917,VALID,0,VALID,99.6188,VALID,0,VALID,19.695,VALID,15,VALID,0.549262,
2002-10-08, 01:24:00,VALID,917.901,VALID,0,VALID,99.6226,VALID,0,VALID,19.6858,VALID,15,VALID,0.494299,
2002-10-08, 01:25:00,VALID,917.884,VALID,0,VALID,99.6251,VALID,0,VALID,19.6761,VALID,11,VALID,0.476357,
2002-10-08, 01:26:00,VALID,917.894,VALID,0,VALID,99.6188,VALID,0,VALID,19.6726,VALID,11,VALID,0.28125,
2002-10-08, 01:27:00,VALID,917.886,VALID,0,VALID,99.6315,VALID,-0.0169808,VALID,19.6734,VALID,11,VALID,0.334736,
2002-10-08, 01:28:00,VALID,917.894,VALID,0,VALID,99.6366,VALID,0,VALID,19.66,VALID,11,VALID,0.00929054,
2002-10-08, 01:29:00,VALID,917.908,VALID,0,VALID,99.634,VALID,-0.0169808,VALID,19.6538,VALID,11,VALID,0.270354,
2002-10-08, 01:30:00,VALID,917.913,VALID,0,VALID,99.6289,VALID,-0.0509425,VALID,19.6607,VALID,11,VALID,0.020633,
2002-10-08, 01:31:00,VALID,917.925,VALID,0,VALID,99.6429,VALID,-0.0169808,VALID,19.6639,VALID,11,VALID,0,
2002-10-08, 01:32:00,VALID,917.93,VALID,0,VALID,99.6378,VALID,0,VALID,19.6669,VALID,11,VALID,0,
2002-10-08, 01:33:00,VALID,917.924,VALID,0,VALID,99.634,VALID,0.0509425,VALID,19.663,VALID,11,VALID,0,
2002-10-08, 01:34:00,VALID,917.922,VALID,0,VALID,99.6378,VALID,0.0679233,VALID,19.6461,VALID,11,VALID,0,
2002-10-08, 01:35:00,VALID,917.927,VALID,0,VALID,99.6429,VALID,0.101885,VALID,19.6498,VALID,11,VALID,0,
2002-10-08, 01:36:00,VALID,917.915,VALID,0,VALID,99.6417,VALID,0.0849042,VALID,19.6625,VALID,11,VALID,0,
2002-10-08, 01:37:00,VALID,917.918,VALID,0,VALID,99.6404,VALID,0.0679233,VALID,19.659,VALID,12,VALID,0.0026727,
2002-10-08, 01:38:00,VALID,917.908,VALID,0,VALID,99.6404,VALID,0.0679233,VALID,19.6754,VALID,167,VALID,0.370477,
2002-10-08, 01:39:00,VALID,917.905,VALID,0,VALID,99.6378,VALID,0.101885,VALID,19.6587,VALID,167,VALID,0.205078,
2002-10-08, 01:40:00,VALID,917.906,VALID,0,VALID,99.6378,VALID,0.0849042,VALID,19.6689,VALID,167,VALID,0.112946,
2002-10-08, 01:41:00,VALID,917.898,VALID,0,VALID,99.6302,VALID,0.101885,VALID,19.6821,VALID,168,VALID,0.0287829,
2002-10-08, 01:42:00,VALID,917.879,VALID,0,VALID,99.6404,VALID,0.101885,VALID,19.6689,VALID,168,VALID,0.235978,
2002-10-08, 01:43:00,VALID,917.888,VALID,0,VALID,99.6315,VALID,0.101885,VALID,19.6821,VALID,168,VALID,0.2125,
2002-10-08, 01:44:00,VALID,917.869,VALID,0,VALID,99.6378,VALID,0.101885,VALID,19.6719,VALID,167,VALID,0.0137747,
2002-10-08, 01:45:00,VALID,917.857,VALID,0,VALID,99.6378,VALID,0.101885,VALID,19.6786,VALID,167,VALID,0,
2002-10-08, 01:46:00,VALID,917.836,VALID,0,VALID,99.6417,VALID,0.101885,VALID,19.6687,VALID,167,VALID,0,
2002-10-08, 01:47:00,VALID,917.826,VALID,0,VALID,99.6429,VALID,0.101885,VALID,19.6654,VALID,168,VALID,0,
2002-10-08, 01:48:00,VALID,917.823,VALID,0,VALID,99.6429,VALID,0,VALID,19.6669,VALID,167,VALID,0,
2002-10-08, 01:49:00,VALID,917.81,VALID,0,VALID,99.6442,VALID,-0.0169808,VALID,19.6669,VALID,167,VALID,0,
2002-10-08, 01:50:00,VALID,917.787,VALID,0,VALID,99.6442,VALID,-0.0169808,VALID,19.6607,VALID,168,VALID,0,
2002-10-08, 01:51:00,VALID,917.776,VALID,0,VALID,99.6404,VALID,0,VALID,19.6776,VALID,168,VALID,0,
2002-10-08, 01:52:00,VALID,917.763,VALID,0,VALID,99.6506,VALID,-0.0169808,VALID,19.6866,VALID,168,VALID,0,
2002-10-08, 01:53:00,VALID,917.746,VALID,0,VALID,99.6391,VALID,0,VALID,19.6925,VALID,168,VALID,0,
2002-10-08, 01:54:00,VALID,917.741,VALID,0,VALID,99.6366,VALID,-0.0169808,VALID,19.7027,VALID,167,VALID,0,
2002-10-08, 01:55:00,VALID,917.729,VALID,0,VALID,99.6518,VALID,-0.0169808,VALID,19.7027,VALID,168,VALID,0,
2002-10-08, 01:56:00,VALID,917.741,VALID,0,VALID,99.6353,VALID,0,VALID,19.692,VALID,167,VALID,0,
2002-10-08, 01:57:00,VALID,917.728,VALID,0,VALID,99.6429,VALID,0,VALID,19.7052,VALID,168,VALID,0,
2002-10-08, 01:58:00,VALID,917.727,VALID,0,VALID,99.6417,VALID,0,VALID,19.7087,VALID,168,VALID,0,
2002-10-08, 01:59:00,VALID,917.704,VALID,0,VALID,99.6391,VALID,-0.0169808,VALID,19.7121,VALID,168,VALID,0,
2002-10-08, 02:00:00,VALID,917.68,VALID,0,VALID,99.6391,VALID,0,VALID,19.6992,VALID,168,VALID,0.329649,
2002-10-08, 02:01:00,VALID,917.666,VALID,0,VALID,99.6468,VALID,0,VALID,19.6833,VALID,168,VALID,0.529297,
2002-10-08, 02:02:00,VALID,917.657,VALID,0,VALID,99.6442,VALID,0,VALID,19.654,VALID,168,VALID,0.672286,
2002-10-08, 02:03:00,VALID,917.638,VALID,0,VALID,99.6417,VALID,-0.0169808,VALID,19.6247,VALID,179,VALID,0.556377,
2002-10-08, 02:04:00,VALID,917.625,VALID,0,VALID,99.6404,VALID,-0.0339617,VALID,19.6349,VALID,195,VALID,0.0566406,
2002-10-08, 02:05:00,VALID,917.625,VALID,0,VALID,99.6429,VALID,-0.0169808,VALID,19.6379,VALID,195,VALID,0.0894326,
2002-10-08, 02:06:00,VALID,917.624,VALID,0,VALID,99.6442,VALID,-0.0169808,VALID,19.6413,VALID,207,VALID,0.480134,
2002-10-08, 02:07:00,VALID,917.606,VALID,0,VALID,99.6493,VALID,0,VALID,19.6349,VALID,211,VALID,0.511018,
2002-10-08, 02:08:00,VALID,917.603,VALID,0,VALID,99.6455,VALID,-0.0339617,VALID,19.6056,VALID,225,VALID,0.344835,
2002-10-08, 02:09:00,VALID,917.59,VALID,0,VALID,99.6506,VALID,-0.0169808,VALID,19.6023,VALID,225,VALID,0.0403294,
2002-10-08, 02:10:00,VALID,917.588,VALID,0,VALID,99.6468,VALID,0,VALID,19.6222,VALID,219,VALID,0.244191,
2002-10-08, 02:11:00,VALID,917.586,VALID,0,VALID,99.6455,VALID,0,VALID,19.612,VALID,211,VALID,0.0193257,
2002-10-08, 02:12:00,VALID,917.581,VALID,0,VALID,99.6493,VALID,0,VALID,19.6147,VALID,203,VALID,0.180099,
2002-10-08, 02:13:00,VALID,917.581,VALID,0,VALID,99.6506,VALID,0,VALID,19.6053,VALID,203,VALID,0,
2002-10-08, 02:14:00,VALID,917.584,VALID,0,VALID,99.6493,VALID,-0.0509425,VALID,19.6319,VALID,203,VALID,0,
2002-10-08, 02:15:00,VALID,917.581,VALID,0,VALID,99.6506,VALID,-0.0339617,VALID,19.6311,VALID,203,VALID,0.0190034,
2002-10-08, 02:16:00,VALID,917.581,VALID,0,VALID,99.6518,VALID,-0.0169808,VALID,19.6451,VALID,203,VALID,0.0265214,
2002-10-08, 02:17:00,VALID,917.574,VALID,0,VALID,99.6569,VALID,-0.0169808,VALID,19.6279,VALID,203,VALID,0,
2002-10-08, 02:18:00,VALID,917.58,VALID,0,VALID,99.6468,VALID,0.0509425,VALID,19.6175,VALID,203,VALID,0.0010016,
2002-10-08, 02:19:00,VALID,917.571,VALID,0,VALID,99.6506,VALID,0.101885,VALID,19.5909,VALID,203,VALID,0,
2002-10-08, 02:20:00,VALID,917.572,VALID,0,VALID,99.6506,VALID,0.101885,VALID,19.5882,VALID,203,VALID,0,
2002-10-08, 02:21:00,VALID,917.558,VALID,0,VALID,99.6607,VALID,0.0849042,VALID,19.5877,VALID,203,VALID,0,
2002-10-08, 02:22:00,VALID,917.552,VALID,0,VALID,99.6595,VALID,0.101885,VALID,19.5909,VALID,203,VALID,0,
2002-10-08, 02:23:00,VALID,917.537,VALID,0,VALID,99.6595,VALID,0.101885,VALID,19.5718,VALID,203,VALID,0,
2002-10-08, 02:24:00,VALID,917.554,VALID,0,VALID,99.6633,VALID,0.0849042,VALID,19.571,VALID,203,VALID,0,
2002-10-08, 02:25:00,VALID,917.55,VALID,0,VALID,99.6633,VALID,0.101885,VALID,19.5782,VALID,203,VALID,0,
2002-10-08, 02:26:00,VALID,917.549,VALID,0,VALID,99.6646,VALID,0.101885,VALID,19.5715,VALID,203,VALID,0,
2002-10-08, 02:27:00,VALID,917.552,VALID,0,VALID,99.6582,VALID,0.101885,VALID,19.5946,VALID,202,VALID,0.0288628,
2002-10-08, 02:28:00,VALID,917.543,VALID,0,VALID,99.6595,VALID,0.0849042,VALID,19.6175,VALID,202,VALID,0.204153,
2002-10-08, 02:29:00,VALID,917.536,VALID,0,VALID,99.6544,VALID,0.0679233,VALID,19.6401,VALID,202,VALID,0.205798,
2002-10-08, 02:30:00,VALID,917.526,VALID,0,VALID,99.6569,VALID,0.101885,VALID,19.6523,VALID,202,VALID,0.0607639,
2002-10-08, 02:31:00,VALID,917.529,VALID,0,VALID,99.6544,VALID,0.101885,VALID,19.6587,VALID,202,VALID,0,
2002-10-08, 02:32:00,VALID,917.527,VALID,0,VALID,99.6569,VALID,0.101885,VALID,19.659,VALID,202,VALID,0,
2002-10-08, 02:33:00,VALID,917.52,VALID,0,VALID,99.6582,VALID,0.0169808,VALID,19.6567,VALID,202,VALID,0,
2002-10-08, 02:34:00,VALID,917.505,VALID,0,VALID,99.6569,VALID,-0.0169808,VALID,19.6736,VALID,202,VALID,0,
2002-10-08, 02:35:00,VALID,917.49,VALID,0,VALID,99.6544,VALID,0,VALID,19.6766,VALID,202,VALID,0,
2002-10-08, 02:36:00,VALID,917.483,VALID,0,VALID,99.6556,VALID,-0.0169808,VALID,19.6639,VALID,202,VALID,0,
2002-10-08, 02:37:00,VALID,917.471,VALID,0,VALID,99.6569,VALID,-0.0169808,VALID,19.6254,VALID,202,VALID,0.0366587,
2002-10-08, 02:38:00,VALID,917.465,VALID,0,VALID,99.6607,VALID,-0.0169808,VALID,19.609,VALID,202,VALID,0.0010016,
2002-10-08, 02:39:00,VALID,917.453,VALID,0,VALID,99.6595,VALID,0.0169808,VALID,19.5991,VALID,242,VALID,0.136819,
2002-10-08, 02:40:00,VALID,917.463,VALID,0,VALID,99.6696,VALID,-0.0339617,VALID,19.58,VALID,329,VALID,0.387868,
2002-10-08, 02:41:00,VALID,917.468,VALID,0,VALID,99.6633,VALID,0,VALID,19.6028,VALID,2,VALID,0.395898,
2002-10-08, 02:42:00,VALID,917.476,VALID,0,VALID,99.6696,VALID,-0.0169808,VALID,19.6147,VALID,24,VALID,0.563585,
2002-10-08, 02:43:00,VALID,917.467,VALID,0,VALID,99.6582,VALID,-0.0169808,VALID,19.6056,VALID,28,VALID,0.717882,
2002-10-08, 02:44:00,VALID,917.465,VALID,0,VALID,99.6696,VALID,-0.0339617,VALID,19.5837,VALID,23,VALID,0.653505,
2002-10-08, 02:45:00,VALID,917.458,VALID,0,VALID,99.6671,VALID,-0.0339617,VALID,19.6001,VALID,1,VALID,0.681127,
2002-10-08, 02:46:00,VALID,917.452,VALID,0,VALID,99.6722,VALID,-0.0679233,VALID,19.5931,VALID,358,VALID,0.219184,
2002-10-08, 02:47:00,VALID,917.435,VALID,0,VALID,99.6696,VALID,-0.0509425,VALID,19.58,VALID,358,VALID,0.0494088,
2002-10-08, 02:48:00,VALID,917.406,VALID,0,VALID,99.6658,VALID,-0.0169808,VALID,19.5442,VALID,358,VALID,0.1352,
2002-10-08, 02:49:00,VALID,917.391,VALID,0,VALID,99.6722,VALID,-0.0339617,VALID,19.5347,VALID,7,VALID,0.332237,
2002-10-08, 02:50:00,VALID,917.368,VALID,0,VALID,99.6722,VALID,0,VALID,19.5375,VALID,37,VALID,0.391892,
2002-10-08, 02:51:00,VALID,917.345,VALID,0,VALID,99.6696,VALID,-0.0169808,VALID,19.5442,VALID,36,VALID,0.558499,
2002-10-08, 02:52:00,VALID,917.318,VALID,0,VALID,99.6735,VALID,0,VALID,19.5444,VALID,33,VALID,0.386328,
2002-10-08, 02:53:00,VALID,917.309,VALID,0,VALID,99.6849,VALID,0,VALID,19.5541,VALID,33,VALID,0.270148,
2002-10-08, 02:54:00,VALID,917.305,VALID,0,VALID,99.6696,VALID,-0.0339617,VALID,19.5765,VALID,28,VALID,0.374578,
2002-10-08, 02:55:00,VALID,917.306,VALID,0,VALID,99.6595,VALID,-0.0339617,VALID,19.5959,VALID,27,VALID,0.236133,
2002-10-08, 02:56:00,VALID,917.301,VALID,0,VALID,99.6646,VALID,0.0169808,VALID,19.6187,VALID,27,VALID,0.262541,
2002-10-08, 02:57:00,VALID,917.299,VALID,0,VALID,99.6684,VALID,-0.0509425,VALID,19.6254,VALID,27,VALID,0.0921875,
2002-10-08, 02:58:00,VALID,917.294,VALID,0,VALID,99.6696,VALID,0,VALID,19.6247,VALID,27,VALID,0.197316,
2002-10-08, 02:59:00,VALID,917.276,VALID,0,VALID,99.6633,VALID,-0.0169808,VALID,19.6413,VALID,27,VALID,0.232856,
2002-10-08, 03:00:00,VALID,917.259,VALID,0,VALID,99.6595,VALID,0,VALID,19.6739,VALID,27,VALID,0.123311,
2002-10-08, 03:01:00,VALID,917.234,VALID,0,VALID,99.6646,VALID,-0.0339617,VALID,19.6605,VALID,27,VALID,0,
2002-10-08, 03:02:00,VALID,917.218,VALID,0,VALID,99.662,VALID,-0.0339617,VALID,19.6379,VALID,27,VALID,0,
2002-10-08, 03:03:00,VALID,917.221,VALID,0,VALID,99.6531,VALID,0.0169808,VALID,19.6371,VALID,27,VALID,0,
2002-10-08, 03:04:00,VALID,917.21,VALID,0,VALID,99.6531,VALID,0,VALID,19.6577,VALID,27,VALID,0,
2002-10-08, 03:05:00,VALID,917.21,VALID,0,VALID,99.6556,VALID,-0.0169808,VALID,19.6508,VALID,27,VALID,0,
2002-10-08, 03:06:00,VALID,917.201,VALID,0,VALID,99.6518,VALID,0,VALID,19.6634,VALID,27,VALID,0.00337838,
2002-10-08, 03:07:00,VALID,917.183,VALID,0,VALID,99.6518,VALID,0,VALID,19.6734,VALID,27,VALID,0.18935,
2002-10-08, 03:08:00,VALID,917.155,VALID,0,VALID,99.6582,VALID,0.0169808,VALID,19.6376,VALID,26,VALID,0.232572,
2002-10-08, 03:09:00,VALID,917.142,VALID,0,VALID,99.6518,VALID,0,VALID,19.6058,VALID,18,VALID,0.708133,
2002-10-08, 03:10:00,VALID,917.11,VALID,0,VALID,99.6785,VALID,0,VALID,19.5606,VALID,18,VALID,0.328336,
2002-10-08, 03:11:00,VALID,917.11,VALID,0,VALID,99.6722,VALID,0,VALID,19.5444,VALID,18,VALID,0.106702,
2002-10-08, 03:12:00,VALID,917.104,VALID,0,VALID,99.676,VALID,-0.0169808,VALID,19.5375,VALID,18,VALID,0.00641026,
2002-10-08, 03:13:00,VALID,917.098,VALID,0,VALID,99.6709,VALID,0,VALID,19.5313,VALID,18,VALID,0.316106,
2002-10-08, 03:14:00,VALID,917.104,VALID,0,VALID,99.6735,VALID,0,VALID,19.5506,VALID,18,VALID,0.101792,
2002-10-08, 03:15:00,VALID,917.101,VALID,0,VALID,99.6633,VALID,0,VALID,19.5703,VALID,18,VALID,0.052426,
2002-10-08, 03:16:00,VALID,917.087,VALID,0,VALID,99.662,VALID,0,VALID,19.57,VALID,18,VALID,0.0221706,
2002-10-08, 03:17:00,VALID,917.092,VALID,0,VALID,99.6658,VALID,0,VALID,19.5569,VALID,18,VALID,0,
2002-10-08, 03:18:00,VALID,917.097,VALID,0,VALID,99.6709,VALID,0,VALID,19.5673,VALID,18,VALID,0.000651042,
2002-10-08, 03:19:00,VALID,917.113,VALID,0,VALID,99.6773,VALID,0,VALID,19.5839,VALID,18,VALID,0.210321,
2002-10-08, 03:20:00,VALID,917.114,VALID,0,VALID,99.6747,VALID,0,VALID,19.5606,VALID,18,VALID,0.0653783,
2002-10-08, 03:21:00,VALID,917.135,VALID,0,VALID,99.6773,VALID,0.0169808,VALID,19.5703,VALID,18,VALID,0.000868056,
2002-10-08, 03:22:00,VALID,917.134,VALID,0,VALID,99.6735,VALID,0,VALID,19.5598,VALID,18,VALID,0,
2002-10-08, 03:23:00,VALID,917.141,VALID,0,VALID,99.6798,VALID,0,VALID,19.5504,VALID,46,VALID,0.15111,
2002-10-08, 03:24:00,VALID,917.159,VALID,0,VALID,99.6773,VALID,0,VALID,19.5573,VALID,49,VALID,0.0190304,
2002-10-08, 03:25:00,VALID,917.153,VALID,0,VALID,99.6824,VALID,-0.0169808,VALID,19.5407,VALID,113,VALID,0.283789,
2002-10-08, 03:26:00,VALID,917.175,VALID,0,VALID,99.6785,VALID,0,VALID,19.531,VALID,159,VALID,0.258018,
2002-10-08, 03:27:00,VALID,917.187,VALID,0,VALID,99.6798,VALID,0,VALID,19.5213,VALID,159,VALID,0.300987,
2002-10-08, 03:28:00,VALID,917.193,VALID,0,VALID,99.6747,VALID,0,VALID,19.5213,VALID,159,VALID,0.338742,
2002-10-08, 03:29:00,VALID,917.222,VALID,0,VALID,99.6798,VALID,0,VALID,19.5086,VALID,159,VALID,0.350761,
2002-10-08, 03:30:00,VALID,917.242,VALID,0,VALID,99.6874,VALID,0,VALID,19.5121,VALID,159,VALID,0.415465,
2002-10-08, 03:31:00,VALID,917.275,VALID,0,VALID,99.6798,VALID,-0.0169808,VALID,19.4927,VALID,164,VALID,0.360983,
2002-10-08, 03:32:00,VALID,917.309,VALID,0,VALID,99.6874,VALID,0,VALID,19.4927,VALID,162,VALID,0.435937,
2002-10-08, 03:33:00,VALID,917.334,VALID,0,VALID,99.6887,VALID,0,VALID,19.4704,VALID,162,VALID,0.186849,
2002-10-08, 03:34:00,VALID,917.351,VALID,0,VALID,99.6887,VALID,0.0169808,VALID,19.4796,VALID,162,VALID,0,
2002-10-08, 03:35:00,VALID,917.356,VALID,0,VALID,99.676,VALID,0,VALID,19.4868,VALID,162,VALID,0,
2002-10-08, 03:36:00,VALID,917.369,VALID,0,VALID,99.6785,VALID,-0.0339617,VALID,19.4637,VALID,162,VALID,0,
2002-10-08, 03:37:00,VALID,917.384,VALID,0,VALID,99.6887,VALID,-0.0169808,VALID,19.4602,VALID,162,VALID,0,